Weather History for KINT - March, 2014

Change the Weather History Date:

Saturday, March 8, 2014

  Actual Average Record
Temperature  
Mean Temperature 46 °F -  
Max Temperature 64 °F 55 °F 84 °F (1974)
Min Temperature 28 °F 36 °F 17 °F (1966)
Degree Days  
Heating Degree Days 19    
Moisture  
Dew Point 32 °F    
Average Humidity 74    
Maximum Humidity 96    
Minimum Humidity 34    
Precipitation  
Precipitation 0.00 in - - ()
Sea Level Pressure  
Sea Level Pressure 30.01 in    
Wind  
Wind Speed 1 mph (WSW)    
Max Wind Speed 10 mph    
Max Gust Speed -    
Visibility 6 miles    
Events Fog    
Averages and records for this station are not official NWS values.
T = Trace of Precipitation, MM = Missing Value Source: NWS Daily Summary

Daily Weather History Graph

Daily Weather History Graph

Search for Another Location

Airport or City:

Trip Planner

Search our weather history database for the weather conditions in past years. The results will help you decide how hot, cold, wet, or windy it might be!

Date:

Astronomy

Mar. 08, 2014 Rise Set
Actual Time 6:41 AM EST 6:22 PM EST
Civil Twilight 6:16 AM EST 6:47 PM EST
Nautical Twilight 5:46 AM EST 7:17 PM EST
Astronomical Twilight 5:16 AM EST 7:47 PM EST
Moon 11:32 AM EST (3/8) 1:07 AM EST (3/8)
Length of Visible Light 12h 31m
Length of Day
11h 40m
First Quarter, 51% of the Moon is Illuminated
Mar 8
First Quarter
Mar 16
Full
Mar 23
Last Quarter
Mar 30
New
Apr 7
First Quarter

Hourly Weather History & Observations

Time (EST) Temp. Windchill Dew Point Humidity Pressure Visibility Wind Dir Wind Speed Gust Speed Precip Events Conditions
12:39 AM 28.9 °F - 28.0 °F 96% 29.96 in 4.0 mi Calm Calm - N/A   Clear
12:54 AM 30.0 °F - 28.0 °F 92% 29.98 in 3.0 mi Calm Calm - N/A   Clear
1:01 AM 30.0 °F - 28.0 °F 92% 29.97 in 2.5 mi Calm Calm - N/A   Clear
1:11 AM 30.0 °F - 28.0 °F 92% 29.98 in 5.0 mi Calm Calm - N/A   Clear
1:54 AM 32.0 °F - 30.0 °F 92% 30.02 in 8.0 mi Calm Calm - N/A   Clear
2:54 AM 30.0 °F - 28.0 °F 92% 30.01 in 4.0 mi Calm Calm - N/A   Clear
3:54 AM 33.1 °F - 30.9 °F 92% 30.01 in 6.0 mi Calm Calm - N/A   Clear
4:21 AM 28.0 °F - 27.0 °F 96% 30.00 in 1.8 mi Calm Calm - N/A   Clear
4:32 AM 30.0 °F - 28.0 °F 92% 29.99 in 1.0 mi Calm Calm - N/A   Mist
4:41 AM 30.0 °F - 27.0 °F 88% 30.00 in 1.8 mi Calm Calm - N/A   Partly Cloudy
4:50 AM 28.4 °F - 26.6 °F 93% 29.99 in 0.8 mi Calm Calm - N/A   Mist
4:54 AM 28.9 °F - 27.0 °F 92% 30.01 in 0.5 mi Calm Calm - N/A Fog Light Freezing Fog
4:56 AM 28.9 °F - 27.0 °F 92% 29.99 in 0.2 mi Calm Calm - N/A Fog Light Freezing Fog
5:06 AM 30.0 °F - 28.0 °F 92% 30.00 in 1.0 mi Calm Calm - N/A   Mist
5:13 AM 30.0 °F - 28.9 °F 96% 30.00 in 2.0 mi Calm Calm - N/A   Partly Cloudy
5:22 AM 28.9 °F 25.2 °F 27.0 °F 92% 30.01 in 4.0 mi South 3.5 mph - N/A   Clear
5:54 AM 34.0 °F 29.8 °F 30.9 °F 89% 30.04 in 7.0 mi West 4.6 mph - N/A   Clear
6:54 AM 33.1 °F 30.0 °F 30.9 °F 92% 30.06 in 3.0 mi West 3.5 mph - N/A   Clear
7:54 AM 36.0 °F - 34.0 °F 93% 30.07 in 5.0 mi Calm Calm - N/A   Clear
8:54 AM 42.1 °F - 37.0 °F 82% 30.08 in 9.0 mi Calm Calm - N/A   Clear
9:54 AM 46.0 °F - 37.9 °F 73% 30.08 in 10.0 mi Calm Calm - N/A   Clear
10:54 AM 51.1 °F - 37.9 °F 61% 30.08 in 10.0 mi SSW 4.6 mph - N/A   Clear
11:54 AM 55.9 °F - 39.0 °F 53% 30.06 in 10.0 mi SSW 4.6 mph - N/A   Clear
12:54 PM 59.0 °F - 39.9 °F 49% 30.04 in 10.0 mi West 5.8 mph - N/A   Clear
1:54 PM 62.1 °F - 37.9 °F 41% 30.00 in 10.0 mi Variable 6.9 mph - N/A   Clear
2:54 PM 64.0 °F - 36.0 °F 35% 29.99 in 10.0 mi WSW 9.2 mph - N/A   Clear
3:54 PM 64.9 °F - 36.0 °F 34% 29.96 in 10.0 mi West 10.4 mph - N/A   Clear
4:54 PM 64.9 °F - 37.0 °F 36% 29.96 in 10.0 mi SW 10.4 mph - N/A   Clear
5:54 PM 64.0 °F - 36.0 °F 35% 29.98 in 10.0 mi SW 5.8 mph - N/A   Clear
6:54 PM 60.1 °F - 37.9 °F 44% 30.00 in 10.0 mi SW 3.5 mph - N/A   Clear
7:54 PM 57.9 °F - 37.9 °F 47% 30.01 in 10.0 mi Calm Calm - N/A   Clear
8:54 PM 54.0 °F - 37.0 °F 53% 30.01 in 10.0 mi WSW 3.5 mph - N/A   Clear
9:54 PM 48.9 °F - 37.0 °F 64% 30.01 in 10.0 mi Calm Calm - N/A   Clear
10:54 PM 46.9 °F - 37.0 °F 68% 30.00 in 10.0 mi Calm Calm - N/A   Clear
11:54 PM 52.0 °F - 32.0 °F 47% 29.99 in 10.0 mi WNW 5.8 mph - N/A   Clear